Weather Roundup
Issued by NWS

Home | Current Version | Previous Version | Graphics & Text | Print | Product List | Glossary Off
Versions: 1 2 3 4 5 6 7 8 9 10 11 12 13 14 15 16 17 18 19 20 21 22 23 24 25 26 27 28 29 30 31 32 33 34 35 36 37 38 39 40 41 42 43 44 45 46 47 48 49 50

000
NZUS93 KARX 281810
HRRWXR

CURRENT HOURLY OBSERVATIONS ACROSS
MUCH OF THE UPPER MISSISSIPPI VALLEY
NATIONAL WEATHER SERVICE LA CROSSE WI
100 PM CDT WED SEP 28 2016


...SOUTHEAST MINNESOTA...


CITY           SKY/WX    TMP DP  RH WIND       PRES   REMARKS
ROCHESTER      CLOUDY    59  50  72 N14       30.13R
ROCHESTER/MAYO CLOUDY    58  49  72 NW9G20    30.13R
WINONA         CLOUDY    59  50  72 NE10      30.10R
AUSTIN         CLOUDY    57  48  72 N10       30.14R
ALBERT LEA     CLOUDY    57  48  72 N10G20    30.15R
DODGE CENTER   CLOUDY    57  48  72 N10       30.14R
PRESTON        CLOUDY    56  49  77 N13G22    30.11R
OWATONNA       CLOUDY    57  48  72 N17       30.17R
FARIBAULT      CLOUDY    57  48  72 N6        30.18R
$$

...ELSEWHERE IN MINNESOTA...


CITY           SKY/WX    TMP DP  RH WIND       PRES   REMARKS
MINNEAPOLIS    CLOUDY    59  49  69 N14       30.19R
INTNL FALLS    CLOUDY    57  47  69 NE6       30.29R
DULUTH         CLOUDY    58  49  72 N9        30.22R
RED WING       PTSUNNY   64  48  55 N9G17     30.13R
REDWOOD FALLS  PTSUNNY   61  47  59 N6        30.22R
MANKATO        CLOUDY    57  48  72 N14       30.20R
WORTHINGTON    CLOUDY    53  46  77 N8        30.24R
FAIRMONT       CLOUDY    57  46  66 N15G21    30.20R
$$

...SOUTHWEST WISCONSIN...


CITY           SKY/WX    TMP DP  RH WIND       PRES   REMARKS
LA CROSSE      LGT RAIN  61  54  77 N13       30.08R
PRAIRIE DU CHI CLOUDY    59  48  67 N8        30.06R
BOSCOBEL       CLOUDY    61  50  67 N7        30.05R
LONE ROCK      CLOUDY    61  49  64 N10       30.04R
PLATTEVILLE    CLOUDY    57  51  79 N15       30.03R
FORT MC COY    CLOUDY    61  53  73 N9        30.07R
CAMP DOUGLAS   PTSUNNY   59  50  72 N7        30.05R
MAUSTON-NEW LI CLOUDY    60  50  70 N7        30.04R
VIROQUA        MOCLDY    61  51  71 N13       30.06R
WIS DELLS      LGT RAIN  56  49  78 N8G16     30.03R
$$

...ELSEWHERE IN WISCONSIN...


CITY           SKY/WX    TMP DP  RH WIND       PRES   REMARKS
MILWAUKEE      CLOUDY    58  51  78 N13       29.98R
MADISON        LGT RAIN  55  51  86 NE14      30.01R FOG
GREEN BAY      CLOUDY    58  55  90 NE16G22   30.04R
EAU CLAIRE     CLOUDY    62  48  60 N15G24    30.11R
BLACK RVR FLS  MOCLDY    59  54  85 NE8G16    30.07R
MEDFORD        CLOUDY    59  50  72 NE13G20   30.10R
WAUSAU         PTSUNNY   61  48  62 N13       30.07R
WIS RAPIDS     CLOUDY    60  50  69 NE14G21   30.07R
MARSHFIELD     PTSUNNY   60  48  64 NE13      30.07R
RICE LAKE      PTSUNNY   62  49  63 N14       30.17R
$$

...NORTHEAST IOWA...


CITY           SKY/WX    TMP DP  RH WIND       PRES   REMARKS
WATERLOO       CLOUDY    60  48  64 N16       30.08R
DUBUQUE        CLOUDY    59  48  67 N20       30.03R
DECORAH        CLOUDY    59  50  72 N16       30.07R
MASON CITY     CLOUDY    59  48  67 N20       30.15R
CHARLES CITY   CLOUDY    59  50  72 N14G20    30.12R
OELWEIN        CLOUDY    59  48  67 N15G23    30.08R
$$

...ELSEWHERE IN IOWA...


CITY           SKY/WX    TMP DP  RH WIND       PRES   REMARKS
DES MOINES     CLOUDY    58  47  66 NW15      30.13R
IOWA CITY      LGT RAIN  58  50  75 N8        30.07R
FORT DODGE     CLOUDY    57  46  67 N7        30.18R
MARSHALLTOWN   CLOUDY    60  48  64 N15       30.10R
CEDAR RAPIDS   CLOUDY    60  51  72 N16       30.05R
$$

...NORTHERN ILLINOIS...


CITY           SKY/WX    TMP DP  RH WIND       PRES   REMARKS
CHICAGO-OHARE  CLOUDY    57  48  72 N15       29.93R
CHICAGO-MIDWAY CLOUDY    60  50  69 N16       29.92R
MOLINE         CLOUDY    60  49  66 N10       30.01R
ROCKFORD       CLOUDY    58  49  72 N14       30.00R
PEORIA         CLOUDY    57  47  69 NW8       29.99R
$$

NOTE: "FAIR" INDICATES FEW OR NO CLOUDS BELOW 12,000 FEET WITH NO
SIGNIFICANT WEATHER AND/OR OBSTRUCTIONS TO VISIBILITY. WIND
SPEEDS ARE IN MILES-PER-HOUR.




USA.gov is the U.S. government's official web portal to all federal, state and local government web resources and services.